Starlink 32147

operational
NORAD ID: 60152 Int'l Des: 2024-120 Owner: SPXS Country: US Constellation: starlink
LEOCIRCULAR

Starlink 32147について

説明を読み込み中...

リアルタイム位置

3D地球を読み込み中...

次回通過

高度履歴

Altitude vs Time

uPlot chart will show altitude changes over time

軌道要素

1 60152U 24120T 26036.62981145 .00002558 00000-0 98455-4 0 9991
2 60152 53.1597 109.1232 0000975 109.3847 250.7260 15.30199360 91466
Epoch: Feb 5, 2026 • Age: 10 hours

現在のステータス

高度 489.8 km
速度 7.62 km/s
衛星直下点 -42.49°S, 170.64°E
打ち上げ日 Jun 27, 2024
運用期間 1.6 years
タイプ internet

技術仕様

分類 Payload
質量 730.00 kg
乾燥質量 700.00 kg
総質量 730.00 kg
長さ 0.30 m
直径 4.10 m
スパン 29.00 m
形状 Box + pan
製造者 SPXS
バスタイプ Starlink V2M
フェーズステータス In Orbit
所有者/国 SPXS/US

大規模コンステレーション

Loading constellations...